Tracking 30970 objects as of 3-Jul-2025
HD Live streaming from Space Station
objects crossing your sky now

COSMOS 1823 DEB

Track COSMOS 1823 DEB now!
10-day predictions


NORAD ID: 29359
Int'l Code: 1987-020EA
Perigee: 1,485.9 km
Apogee: 1,532.1 km
Inclination: 73.6 °
Period: 116.0 minutes
Semi major axis: 7879 km
RCS: 0.0053 m2 (small)
Launch date: February 20, 1987
Source: Commonwealth of Independent States (former USSR) (CIS)
Launch site: PLESETSK MISSILE AND SPACE COMPLEX (PKMTR)

Note: This is SATELLITE DEBRIS
Your satellite tracking list
Your tracking list is empty




NASA's NSSDC Master Catalog

Two Line Element Set (TLE):
1 29359U 87020EA  25182.44708559 -.00000016  00000-0  10325-4 0  9998
2 29359  73.6126 174.7522 0029314  15.6930 140.5518 12.41123801485358
Source of the keplerian elements: AFSPC